Regional Weather Roundup
Issued by NWS

Home | Current Version | Previous Version | Graphics & Text | Print | Product List | Glossary On
Versions: 1 2 3 4 5 6 7 8 9 10 11 12 13 14 15 16 17 18 19 20 21 22 23 24 25 26 27
000
ASUS45 KCYS 210010
RWRWY

WYOMING REGIONAL WEATHER ROUNDUP
NATIONAL WEATHER SERVICE CHEYENNE WY
500 PM MST SAT JAN 20 2018

NOTE:  "FAIR" INDICATES FEW OR NO CLOUDS BELOW 12,000 FEET
WITH NO SIGNIFICANT WEATHER AND/OR OBSTRUCTIONS TO VISIBILITY.

WYZ001-210100-
YELLOWSTONE NATIONAL PARK

CITY           SKY/WX    TMP DP  RH WIND       PRES   REMARKS
LK YELLOWSTONE   N/A     15   8  73 NW3       29.87R
6HR MIN TEMP:  15; 6HR MAX TEMP:  20;

W YELLOWSTONE  NOT AVBL

$$
WYZ002>013-054>058-071-098>099-210100-
NORTHERN WYOMING

CITY           SKY/WX    TMP DP  RH WIND       PRES   REMARKS
JACKSON        CLOUDY    24  16  71 N7        29.85R WCI  16
CODY           CLOUDY    28  22  78 N5        29.91R WCI  23
GREYBULL       CLOUDY    32  27  81 CALM      29.91R
6HR MIN TEMP:  29; 6HR MAX TEMP:  34;

WORLAND        CLOUDY    28  26  92 SW5       29.91R WCI  23
6HR MIN TEMP:  28; 6HR MAX TEMP:  33;

SHERIDAN       CLOUDY    29  21  72 W3        29.94R
6HR MIN TEMP:  28; 6HR MAX TEMP:  33;

BUFFALO        CLOUDY    28  16  60 NW5       29.92R WCI  23
6HR MIN TEMP:  28; 6HR MAX TEMP:  32;

GILLETTE       CLOUDY    29  25  85 SW5       29.92R WCI  24
6HR MIN TEMP:  28; 6HR MAX TEMP:  32;

HULETT         CLOUDY    32  27  80 CALM      29.93R
NEWCASTLE      LGT SNOW  30  30 100 NW5       29.91S VSB 3/4 WCI  25

$$
WYZ014>020-022>026-101>103-210100-
CENTRAL WYOMING

CITY           SKY/WX    TMP DP  RH WIND       PRES   REMARKS
BIG PINEY      CLOUDY    24  19  81 N12       29.78S WCI  13
6HR MIN TEMP:  24; 6HR MAX TEMP:  28; 6HR PCP: TRACE;

PINEDALE       LGT SNOW  23  21  93 NW14      29.78R WCI  11
DUBOIS         LGT SNOW  23  21  93 SE8       29.79R WCI  14
LANDER         SNOW      25  23  92 E5        29.85R VSB 1/2 WCI  19
6HR MIN TEMP:  25; 6HR MAX TEMP:  28; 6HR PCP:  0.19;

RIVERTON       SNOW      25  23  92 NE7       29.86S VSB 1/2 WCI  17
6HR MIN TEMP:  25; 6HR MAX TEMP:  28; 6HR PCP:  0.16;

CASPER         SNOW      23  23 100 NE14      29.86S VSB 1/2 WCI  11
6HR MIN TEMP:  23; 6HR MAX TEMP:  27; 6HR PCP:  0.15;

DOUGLAS        LGT SNOW  27  25  92 N8        29.88R FOG     WCI  19
6HR MIN TEMP:  27; 6HR MAX TEMP:  31; 6HR PCP: TRACE;


$$
WYZ021-027>030-104>119-210100-
SOUTHERN WYOMING

CITY           SKY/WX    TMP DP  RH WIND       PRES   REMARKS
EVANSTON       CLOUDY    20  19  96 N15       29.80R FOG     WCI   6
6HR MIN TEMP:  20; 6HR MAX TEMP:  22;

FORT BRIDGER   LGT SNOW  23  23 100 NW8       29.81R WCI  14
ROCK SPRINGS   LGT SNOW  24  21  88 N8        29.76R VSB 1   WCI  15
6HR MIN TEMP:  24; 6HR MAX TEMP:  27; 6HR PCP:  0.02;

DIXON          LGT SNOW  31  30  96 CALM      29.72F
RAWLINS        LGT SNOW  27  25  92 N9        29.73S VSB 3/4 WCI  18
6HR MIN TEMP:  27; 6HR MAX TEMP:  30; 6HR PCP:  0.05;

SARATOGA       LGT SNOW  30  30 100 NW3       29.72S
LARAMIE        FAIR      32  24  72 E7        29.71R WCI  26
6HR MIN TEMP:  32; 6HR MAX TEMP:  46;

CHEYENNE       FOG       28  28 100 NE7       29.79R VSB 1/2 WCI  21
6HR MIN TEMP:  28; 6HR MAX TEMP:  30;

TORRINGTON     CLOUDY    32  31  96 NE12      29.86R WCI  23
6HR MIN TEMP:  32; 6HR MAX TEMP:  37;


$$




USA.gov is the U.S. government's official web portal to all federal, state and local government web resources and services.